Location: Kernascl�den
(48.0062°N, 3.3198°W)
Time: 23:11:44
(UTC+00:00)

Cosmos 2344 - Visible Passes

Search period start: 05 May 2021 00:00
Search period end: 15 May 2021 00:00
Orbit: 1241 x 3001 km, 63.3° (Epoch: 05 May)

Date Brightness Start Highest point End Pass type
(mag) Time Alt. Az. Time Alt. Az. Time Alt. Az.
05 May 4.6 00:41:16 10° NW 00:50:07 66° NE 01:02:24 10° SE visible
05 May 4.7 02:55:46 10° NW 03:04:51 46° WSW 03:17:07 10° S visible
05 May 5.3 19:59:01 10° W 20:05:48 35° NNW 20:13:41 10° NE visible
05 May 5.4 22:16:06 10° NW 22:23:16 32° NNE 22:32:11 10° ENE visible
06 May 4.6 00:30:57 10° NW 00:39:48 66° NE 00:52:04 10° SE visible
06 May 4.7 02:45:26 10° NW 02:54:31 46° WSW 03:06:47 10° S visible
06 May 5.4 22:05:47 10° NW 22:12:56 32° NNE 22:21:52 10° ENE visible
07 May 4.5 00:20:37 10° NW 00:29:28 66° NE 00:41:44 10° SE visible
07 May 4.7 02:35:07 10° NW 02:44:11 46° WSW 02:56:27 10° S visible
07 May 5.4 21:55:27 10° NW 22:02:36 32° NNE 22:11:33 10° ENE visible
08 May 4.5 00:10:17 10° NW 00:19:08 66° NE 00:31:25 10° SE visible
08 May 4.7 02:24:47 10° NW 02:33:51 45° WSW 02:46:06 10° S visible
08 May 5.4 21:45:08 10° NW 21:52:17 32° NNE 22:01:13 10° ENE visible
08 May 4.5 23:59:57 10° NW 00:08:48 66° NE 00:21:06 10° SE visible
09 May 4.7 02:14:27 10° NW 02:23:30 45° WSW 02:35:46 10° S visible
09 May 5.4 21:34:48 10° NW 21:41:57 32° NNE 21:50:54 10° ENE visible
09 May 4.5 23:49:37 10° NW 23:58:29 66° NE 00:10:46 10° SE visible
10 May 4.7 02:04:07 10° NW 02:13:11 45° WSW 02:25:26 10° S visible
10 May 5.4 21:24:28 10° NW 21:31:38 32° NNE 21:40:35 10° ENE visible
10 May 4.5 23:39:17 10° NW 23:48:08 66° NE 00:00:26 10° SE visible
11 May 4.7 01:53:47 10° NW 02:02:51 45° WSW 02:13:04 15° S visible
11 May 5.4 21:14:08 10° NW 21:21:18 32° NNE 21:30:15 10° ENE visible
11 May 4.5 23:28:57 10° NW 23:37:49 66° NE 23:50:06 10° SE visible
12 May 4.7 01:43:27 10° NW 01:52:31 45° WSW 02:00:58 20° S visible
12 May 5.4 21:03:48 10° NW 21:10:58 32° NNE 21:19:56 10° ENE visible
12 May 4.5 23:18:37 10° NW 23:27:29 66° NE 23:39:42 10° SE visible
13 May 4.7 01:33:07 10° NW 01:42:11 45° WSW 01:49:35 24° S visible
13 May 5.4 20:53:28 10° NW 21:00:39 32° NNE 21:09:37 10° ENE visible
13 May 4.5 23:08:17 10° NW 23:17:09 67° NE 23:28:39 12° SE visible
14 May 4.8 01:22:47 10° NW 01:31:51 45° WSW 01:38:34 26° S visible
14 May 5.3 20:43:09 10° NW 20:50:19 32° NNE 20:59:17 10° ENE visible
14 May 4.5 22:57:57 10° NW 23:06:49 67° NE 23:17:50 14° SE visible
